#timestamp,LO_Frequency,Hit,StdDev 
1503871215.7,286046997.9,N,1.4
1503871235.6,286046997.4,N,1.4
1503871255.4,286046997.9,N,1.4
1503871275.2,286046994.9,Y,0.0
1503871295.1,286046996.7,P,1.1
1503871296.0,286046996.7,N,1.1
1503871315.8,286046997.7,N,0.9
1503871335.6,286046996.7,Y,0.0
1503871355.5,286046998.9,P,0.7
1503871375.3,286046998.1,N,0.6
1503871395.2,286046998.7,N,0.5
1503871415.9,286046999.1,N,0.6
1503871435.7,286046999.4,N,0.6
1503871455.6,286046999.5,N,0.7
1503871475.4,286046996.9,Y,0.0
1503871495.2,286047001.2,P,1.2
1503871515.1,286046998.4,N,1.2
1503871516.0,286046998.4,N,1.2
1503871535.8,286046999.0,N,1.1
1503871555.6,286046999.5,N,1.0
1503871575.5,286046998.8,N,0.9
1503871595.3,286046997.0,Y,0.0
1503871615.1,286046998.8,P,0.2
1503871635.9,286046999.1,P,0.2
1503871655.7,286046999.3,P,0.2
1503871675.5,286046999.2,Y,0.0
1503871695.4,286046999.0,P,0.0
1503871715.2,286046998.1,P,0.4
1503871735.1,286047000.8,N,1.0
1503871736.0,286047000.8,N,1.1
1503871755.8,286047001.2,N,1.2
1503871775.6,286046998.2,N,1.2
1503871795.5,286046998.3,N,1.2
1503871815.3,286046998.8,N,1.2
1503871835.1,286046998.3,N,1.1
1503871855.9,286046999.2,N,1.1
1503871875.7,286046998.8,N,1.1
1503871895.5,286046998.2,N,1.0
1503871915.4,286046998.1,N,1.0
1503871935.2,286046998.5,N,1.0
1503871955.0,286046998.1,N,1.0
1503871955.9,286046998.1,N,1.0
1503871975.8,286046998.2,N,1.0
1503871995.6,286046998.1,N,1.0
1503872015.4,286046998.2,N,1.0
1503872035.3,286046998.1,N,1.0
1503872055.1,286046998.4,N,0.9
1503872075.8,286046998.8,N,0.9
1503872095.7,286046999.2,N,0.9
1503872115.5,286046996.9,Y,0.0
1503872135.4,286046998.3,P,0.2
1503872155.2,286047000.9,P,1.1
1503872175.0,286047001.0,N,1.2
1503872175.9,286047001.0,N,1.2
1503872195.8,286047000.3,N,1.1
1503872215.6,286047000.2,N,1.0
1503872235.4,286047001.1,N,1.0
1503872255.3,286047000.8,N,1.0
1503872275.1,286047000.9,N,0.9
1503872276.0,286047000.9,N,0.9
1503872295.8,286047002.8,Y,0.0
1503872315.7,286047000.0,P,0.2
1503872335.5,286047000.6,P,0.2
1503872355.3,286046999.0,P,0.6
1503872375.2,286046998.3,N,0.9
1503872395.0,286046999.0,N,0.8
1503872395.9,286046999.0,N,0.8
1503872415.7,286047001.2,N,0.9
1503872435.6,286047000.6,N,0.9
1503872455.4,286046999.2,N,0.9
1503872475.3,286046999.6,N,0.9
1503872495.1,286046997.0,Y,0.0
1503872496.0,286046997.0,P,1.4
1503872515.8,286046996.5,N,1.4
1503872535.7,286046996.5,N,1.3
1503872555.5,286046999.2,N,1.4
1503872575.3,286046996.5,N,1.4
1503872595.2,286046998.8,N,1.3
1503872615.9,286046998.9,N,1.3
1503872635.7,286047000.5,N,1.5
1503872655.6,286047001.1,N,1.6
1503872675.4,286046998.3,N,1.6
1503872695.2,286046998.4,N,1.5
1503872715.1,286046998.7,N,1.4
1503872716.0,286046998.7,N,1.4
1503872735.8,286046999.3,N,1.4
1503872755.6,286046998.5,N,1.3
1503872775.5,286046998.7,N,1.3
1503872795.3,286046999.1,N,1.3
1503872815.1,286046999.2,N,1.2
1503872835.9,286046999.1,N,1.2
1503872855.7,286046997.0,N,1.2
1503872875.6,286046996.8,N,1.3
1503872895.4,286046996.6,N,1.3
1503872915.2,286046997.7,N,1.3
1503872935.0,286046996.7,N,1.3
1503872935.9,286046996.7,N,1.3
1503872955.8,286046998.9,N,1.3
1503872975.6,286046998.9,N,1.3
1503872995.5,286046999.0,N,1.2
1503873015.3,286046999.1,N,1.2
1503873035.1,286046998.6,N,1.2
1503873055.9,286046999.4,N,1.2
1503873075.7,286046998.7,N,1.1
1503873095.5,286046999.4,N,1.1
1503873115.4,286046998.3,N,1.1
1503873135.2,286046998.9,N,1.0
1503873155.0,286046999.3,N,1.0
1503873155.9,286046999.3,N,1.0
1503873175.8,286046999.5,N,1.0
1503873195.6,286046999.5,N,0.9
1503873215.4,286046997.1,Y,0.0
1503873235.3,286046998.6,P,0.0
1503873255.1,286046999.0,P,0.2
1503873275.8,286046999.0,P,0.2
1503873295.7,286046999.6,N,0.4
1503873315.5,286046999.3,N,0.4
1503873335.3,286046999.4,N,0.4
1503873355.2,286046999.6,N,0.4
1503873375.9,286046997.3,Y,0.0
1503873395.7,286046996.7,P,1.2
1503873415.6,286046997.1,N,1.1
1503873435.4,286046997.2,N,0.9
1503873455.2,286046999.0,N,1.0
1503873475.1,286047001.2,N,1.6
1503873476.0,286047001.2,N,1.8
1503873495.8,286046999.8,N,1.7
1503873515.7,286047000.1,N,1.6
1503873535.5,286046999.7,N,1.6
1503873555.3,286047000.6,N,1.5
1503873575.2,286047001.2,N,1.6
1503873595.9,286047000.4,N,1.5
1503873615.7,286047000.9,N,1.5
1503873635.6,286047001.0,N,1.5
1503873655.4,286047000.8,N,1.5
1503873675.2,286047001.2,N,1.5
1503873695.1,286047000.2,N,1.4
1503873696.0,286047000.2,N,1.4
1503873715.8,286046999.8,N,1.4
1503873735.6,286047002.6,N,1.5
1503873755.5,286047002.2,N,1.5
1503873775.3,286047002.5,N,1.5
1503873795.1,286046999.9,N,1.5
1503873815.9,286047002.4,N,1.5
1503873835.7,286047002.7,N,1.6
1503873855.5,286047002.1,N,1.6
1503873875.4,286047002.5,N,1.6
1503873895.2,286047002.8,N,1.6
1503873915.0,286046999.7,N,1.6
1503873915.9,286046999.7,N,1.6
1503873935.8,286047002.7,N,1.5
1503873955.6,286047002.2,N,1.3
1503873975.5,286047001.6,N,1.1
1503873995.3,286047003.7,Y,0.0
1503874015.1,286047004.4,P,1.7
1503874035.9,286047002.0,N,1.4
1503874055.7,286047002.4,N,1.2
1503874075.5,286046999.8,N,1.5
1503874095.4,286047002.0,N,1.4
1503874115.2,286047002.6,N,1.3
1503874135.0,286046999.8,N,1.4
1503874135.9,286046999.8,N,1.5
1503874155.8,286046999.8,N,1.5
1503874175.6,286047002.7,N,1.5
1503874195.4,286047002.4,N,1.4
1503874215.3,286047002.6,N,1.4
1503874235.1,286047002.1,N,1.4
1503874255.8,286047004.3,Y,0.0
1503874275.7,286046999.8,P,0.9
1503874295.5,286047000.1,N,0.8
1503874315.3,286047000.3,N,0.7
1503874335.2,286047000.4,N,0.6
1503874355.0,286046999.7,N,0.7
1503874355.9,286046999.7,N,0.6
1503874375.8,286047000.3,N,0.6
1503874395.6,286047000.2,N,0.6
1503874415.4,286046999.7,N,0.6
1503874435.3,286046999.7,N,0.6
1503874455.1,286046999.7,N,0.5
1503874456.0,286046999.7,N,0.5
1503874475.8,286047000.1,N,0.5
1503874495.7,286046999.7,N,0.5
1503874515.5,286047002.7,Y,0.0
1503874535.3,286047002.4,P,1.2
1503874555.2,286047001.5,N,1.0
1503874575.9,286047004.3,P,1.5
1503874595.7,286047004.0,N,1.6
1503874615.6,286047001.8,N,1.5
1503874635.4,286047004.3,N,1.5
1503874655.2,286047004.3,N,1.5
1503874675.1,286047004.0,N,1.5
1503874676.0,286047004.0,N,1.4
1503874695.8,286047004.2,N,1.4
1503874715.6,286047001.9,N,1.4
1503874735.5,286047001.3,N,1.4
1503874755.3,286047001.3,N,1.4
1503874775.1,286047004.4,Y,0.0
1503874795.9,286047000.8,P,1.0
